Tracking 26321 objects as of 27-Nov-2022
HD Live streaming from Space Station
objects crossing your sky now

STARLINK-3905

Track STARLINK-3905 now!
10-day predictions
STARLINK-3905 is classified as:


NORAD ID: 52495
Int'l Code: 2022-049AW
Perigee: 545.2 km
Apogee: 548.5 km
Inclination: 53.2 °
Period: 95.4 minutes
Semi major axis: 6917 km
RCS: Unknown
Launch date: May 6, 2022
Source: United States (US)
Launch site: AIR FORCE EASTERN TEST RANGE (AFETR)
aabbcc
Your satellite tracking list
Your tracking list is empty




NASA's NSSDC Master Catalog

Two Line Element Set (TLE):
1 52495U 22049AW  22330.54765241  .00001304  00000-0  99992-4 0  9996
2 52495  53.2191  32.2912 0002347  33.2965 326.8174 15.08848375 31364
Source of the keplerian elements: AFSPC